"TOA5","AWS1","CR1000","7964","CR1000.Std.14","CPU:AWS1_114.CR1","64363","TBL110"
"TIMESTAMP","RECORD","Wind_spd_WVc(1)","Wind_spd_WVc(2)","Air_Temp_Avg","Humidity_Avg","SW_upper_Wm2_Avg","Rain_Tot","Press_Avg","Issui_Tot","Depth_cm","SR50A_Raw","Quality","Ground_Temp_Avg(1)","Ground_Temp_Avg(2)","SW_lower_Wm2_Avg","Albedo_Avg","SWC_per(1)","SWC_per(2)","Period(1)","Period(2)"
"TS","RN","","","","","","","","","","","","","","","","","","",""
"","","WVc","WVc","Avg","Avg","Avg","Tot","Avg","Tot","Smp","Smp","Smp","Avg","Avg","Avg","Avg","Smp","Smp","Smp","Smp"
"2016-10-05 00:00:00",256093,0.757,182.8,10.47,78.14,0,0,870.686,0,-1.756,3.135,198,18.07,18.28,0.4018287,0,50.11,57.16,33.33,35.02
"2016-10-05 00:10:00",256094,0.267,189.9,12.25,59.23,0.6094021,0,870.6693,0,-2.055,3.122,200,18.11,18.28,2.278293,1.182,50.11,57.16,33.33,35.02
"2016-10-05 00:20:00",256095,0.253,189.7,13.79,53.93,0.7509407,0,870.7883,0,-2.106,3.127,197,18.11,18.28,2.426135,1.684,50.06,57.16,33.31,35.02
"2016-10-05 00:30:00",256096,0.124,204.6,13.6,59.88,0.4442738,0,870.9402,0,-2.434,3.125,198,18.09,18.28,1.576988,1.729,50.06,57.16,33.31,35.02
"2016-10-05 00:40:00",256097,0.018,209.9,14.7,57.08,0.9829067,0,871.0234,0,-2.629,3.121,198,18.03,18.28,2.119077,2.325,50.06,57.16,33.31,35.02
"2016-10-05 00:50:00",256098,0.056,209.9,14.61,61.84,0.0589744,0,870.9957,0,-2.224,3.118,197,18.03,18.27,1.057643,0.53,50.06,57.16,33.31,35.02
"2016-10-05 01:00:00",256099,0.049,201.1,14.89,60.69,0,0,871.1284,0,-2.465,3.127,198,17.99,18.26,1.319211,0,50.11,57.16,33.33,35.02
"2016-10-05 01:10:00",256100,0.43,187.7,13.62,67.58,0,0,871.1936,0,-2.036,3.125,208,17.98,18.23,0,0,50.06,57.1,33.31,35.01
"2016-10-05 01:20:00",256101,0.428,191.7,13.56,72.09,0,0,870.922,0,-2.316,3.124,212,17.92,18.23,0.2577509,0,50.06,57.16,33.31,35.02
"2016-10-05 01:30:00",256102,0.123,170.7,13.91,70.67,0.07468863,0,870.8651,0,-1.63,3.112,210,17.89,18.21,0.7618366,1.125,50.06,57.1,33.31,35.01
"2016-10-05 01:40:00",256103,0.284,186.7,14.57,68.95,0.03537855,0,870.8209,0,-1.979,3.122,200,17.85,18.2,0.8717412,0.482,50.06,57.16,33.31,35.02
"2016-10-05 01:50:00",256104,0.351,175.6,14.34,71.55,0,0,870.6924,0,-1.977,3.115,205,17.83,18.18,0.6784143,0,50.06,57.1,33.31,35.01
"2016-10-05 02:00:00",256105,0.043,118.9,15.66,66.84,0.09040321,0,870.6924,0,-2.5,3.119,202,17.79,18.17,1.716795,1.342,50.06,57.1,33.31,35.01
"2016-10-05 02:10:00",256106,0.363,186.7,14.25,75.18,0,0,870.6924,0,-1.922,3.12,204,17.74,18.16,0.007579498,0,50.06,57.1,33.31,35.01
"2016-10-05 02:20:00",256107,0.321,180.9,13.97,77.72,0,0,870.6882,0,-2.205,3.123,200,17.69,18.16,0,0,50.06,57.1,33.31,35.01
"2016-10-05 02:30:00",256108,0.029,187.4,14.47,74.49,0,0,870.6629,0,-2.591,3.123,196,17.71,18.16,0.6177047,0,50.06,57.1,33.31,35.01
"2016-10-05 02:40:00",256109,0.161,185.3,14.24,76.25,0,0,870.6481,0,-2.07,3.117,198,17.73,18.16,0.2804276,0,50.06,57.1,33.31,35.01
"2016-10-05 02:50:00",256110,0.065,184,14.12,78.11,0,0,870.4838,0,-1.593,3.118,210,17.67,18.1,0.3145332,0,50.06,57.04,33.31,34.99
"2016-10-05 03:00:00",256111,0.164,195.3,14.42,75.25,0,0,870.5976,0,-2.237,3.125,197,17.63,18.1,0.6745392,0,50.06,57.04,33.31,34.99
"2016-10-05 03:10:00",256112,0.58,188.4,13.59,80.2,0,0,870.4396,0,-2.273,3.127,198,17.62,18.1,0,0,50.06,57.04,33.31,34.99
"2016-10-05 03:20:00",256113,0.536,187.2,13.3,80.3,0,0,870.3069,0,-2.151,3.127,198,17.63,18.12,0,0,50.06,57.1,33.31,35.01
"2016-10-05 03:30:00",256114,0.298,175.5,13.44,75.66,0,0,870.2016,0,-2.087,3.124,197,17.62,18.13,0.1402131,0,50.06,57.04,33.31,34.99
"2016-10-05 03:40:00",256115,0.414,157.8,13.8,71.26,0,0,870.1868,0,-1.619,3.118,197,17.58,18.1,0.4547468,0,50.06,57.1,33.31,35.01
"2016-10-05 03:50:00",256116,0.107,165.5,14.35,72.01,0,0,870.1152,0,-1.781,3.117,198,17.61,18.07,0.7958147,0,50.06,57.04,33.31,34.99
"2016-10-05 04:00:00",256117,0.144,161.6,14.54,73.71,0,0,870.1511,0,-2.287,3.121,204,17.57,18.07,0.6821226,0,50.01,57.04,33.3,34.99
"2016-10-05 04:10:00",256118,0.099,146.6,14.68,74.92,0,0,870.1532,0,-1.538,3.113,198,17.54,18.06,0.6176972,0,50.01,57.04,33.3,34.99
"2016-10-05 04:20:00",256119,0.213,39.25,14.7,77.28,0,0,870.0016,0,-1.761,3.114,193,17.53,18.06,0.5494842,0,50.06,57.04,33.31,34.99
"2016-10-05 04:30:00",256120,0.077,338.9,15.13,76.39,0,0,869.9342,0,-1.718,3.111,198,17.5,18.06,0.9094906,0,50.06,57.1,33.31,35.01
"2016-10-05 04:40:00",256121,0.183,240.3,14.91,75.97,0,0,869.9342,0,-1.852,3.121,198,17.5,18.06,0.4206395,0,50.06,57.1,33.31,35.01
"2016-10-05 04:50:00",256122,0.128,186.3,13.74,83.1,0,0,869.9173,0,-1.894,3.12,197,17.45,18.06,0,0,50.01,57.04,33.3,34.99
"2016-10-05 05:00:00",256123,0.132,187.8,13.51,84.6,0,0,869.8141,0,-1.423,3.118,202,17.45,18.06,0,0,50.01,57.04,33.3,34.99
"2016-10-05 05:10:00",256124,0.08,190,13.75,80.9,0,0,869.871,0,-2.096,3.121,198,17.45,18.02,0.2311652,0,50.06,57.04,33.31,34.99
"2016-10-05 05:20:00",256125,0.179,161,13.46,83.6,0,0,869.9342,0,-1.622,3.123,197,17.42,18.01,0.04547516,0,50.01,57.04,33.3,34.99
"2016-10-05 05:30:00",256126,0.198,184.1,13.11,83.5,0,0,869.9342,0,-2.079,3.127,202,17.41,17.95,0.05305391,0,50.01,57.04,33.3,34.99
"2016-10-05 05:40:00",256127,0.404,176,12.83,84.3,0,0,869.9342,0,-1.164,3.119,207,17.36,17.97,0.06821186,0,50.06,57.04,33.31,34.99
"2016-10-05 05:50:00",256128,0.256,178,13.08,79.33,0.3262138,0,869.9342,0,-1.753,3.125,197,17.37,17.97,0.6480123,0.67,50.01,57.04,33.3,34.99
"2016-10-05 06:00:00",256129,0.249,168.7,12.64,81.2,4.567062,0,869.9257,0,-1.503,3.123,201,17.32,18,0.9511906,0.192,50.01,56.98,33.3,34.98
"2016-10-05 06:10:00",256130,0.112,157.1,12.87,78.96,12.41217,0,869.9468,0,-1.83,3.125,197,17.29,18.02,2.584536,0.208,50.01,57.04,33.3,34.99
"2016-10-05 06:20:00",256131,0.287,115.7,13.31,78.39,24.25494,0,869.9995,0,-1.29,3.114,203,17.29,18.02,4.725785,0.194,50.01,57.04,33.3,34.99
"2016-10-05 06:30:00",256132,0.18,78.74,14.43,75.99,32.56555,0,869.9531,0,-1.27,3.11,200,17.3,18.03,6.219238,0.191,50.01,57.04,33.3,34.99
"2016-10-05 06:40:00",256133,0.247,59.92,14.91,76.86,43.38614,0,870.069,0,-1.21,3.109,206,17.3,18,7.48877,0.173,50.01,57.04,33.3,34.99
"2016-10-05 06:50:00",256134,0.099,119.4,14.55,80.5,49.06834,0,869.9552,0,-1.888,3.118,198,17.29,17.99,7.10578,0.145,50.01,57.04,33.3,34.99
"2016-10-05 07:00:00",256135,0.199,86.9,14.5,81.4,59.46673,0,870.0268,0,-1.637,3.113,200,17.29,17.98,8.564582,0.144,50.01,56.98,33.3,34.98
"2016-10-05 07:10:00",256136,0.192,87.6,14.65,82.2,71.53576,0,870.069,0,-1.31,3.111,209,17.24,17.97,10.23944,0.143,50.01,56.98,33.3,34.98
"2016-10-05 07:20:00",256137,0.234,355,14.85,82.4,74.5774,0,870.387,0,-1.399,3.11,200,17.21,17.97,10.70549,0.144,50.01,56.98,33.3,34.98
"2016-10-05 07:30:00",256138,0.189,23.85,15.1,80.3,97.57335,0,870.4186,0,-1.393,3.109,198,17.17,17.97,14.16153,0.145,50.01,56.98,33.3,34.98
"2016-10-05 07:40:00",256139,0.085,327.1,15.26,80.2,104.6714,0,870.4396,0,-1.441,3.109,200,17.15,17.97,14.7148,0.141,50.01,56.98,33.3,34.98
"2016-10-05 07:50:00",256140,0.158,118.1,15.17,83.7,149.4688,0,870.4081,0,-1.259,3.107,199,17.15,17.97,21.55114,0.144,50.01,56.98,33.3,34.98
"2016-10-05 08:00:00",256141,0.253,117.9,15.43,82.8,139.7178,0,870.1974,0,-1.167,3.104,208,17.15,17.95,20.58859,0.147,50.01,56.98,33.3,34.98
"2016-10-05 08:10:00",256142,0.147,122.9,15.89,79.44,145.6918,0,870.3912,0,-1.153,3.102,197,17.15,17.91,20.97892,0.144,50.01,56.98,33.3,34.98
"2016-10-05 08:20:00",256143,0.36,136.6,16.14,81.1,161.2636,0,870.427,0,-0.878,3.097,203,17.15,17.9,27.83041,0.172,50.01,56.98,33.3,34.98
"2016-10-05 08:30:00",256144,0.65,130,16.7,79.12,202.0325,0,870.2922,0,-1.481,3.101,198,17.13,17.91,35.18592,0.175,50.01,56.98,33.3,34.98
"2016-10-05 08:40:00",256145,0.282,135.1,16.86,79.28,211.8228,0,870.0647,0,-1.37,3.099,203,17.16,17.89,32.27934,0.152,49.95,56.93,33.28,34.97
"2016-10-05 08:50:00",256146,0.113,147.3,16.9,78.75,204.4103,0,869.9678,0,-0.958,3.095,202,17.19,17.88,29.64182,0.145,50.01,56.93,33.3,34.97
"2016-10-05 09:00:00",256147,0.104,294.4,16.77,81.1,190.1944,0,870.1384,0,-0.966,3.096,196,17.19,17.88,27.01187,0.142,50.01,56.93,33.3,34.97
"2016-10-05 09:10:00",256148,0.216,318.5,16.69,83.2,161.0317,0,869.991,0,-1.821,3.105,199,17.19,17.88,21.80125,0.135,50.01,56.98,33.3,34.98
"2016-10-05 09:20:00",256149,0.212,104.3,16.73,84.3,174.1235,0,869.9637,0,-1.688,3.103,201,17.19,17.88,23.61265,0.135,49.95,56.93,33.28,34.97
"2016-10-05 09:30:00",256150,0.203,136.9,16.95,83.7,197.0567,0,869.9426,0,-1.419,3.099,203,17.18,17.88,32.27555,0.164,49.95,56.98,33.28,34.98
"2016-10-05 09:40:00",256151,0.47,114.3,17.12,83,156.449,0,869.9342,0,-2.862,3.113,188,17.15,17.88,23.7756,0.151,49.95,56.93,33.28,34.97
"2016-10-05 09:50:00",256152,0.387,46.11,17.03,82.4,146.0455,0,869.8457,0,-1.481,3.101,198,17.19,17.9,21.15324,0.146,49.95,56.93,33.28,34.97
"2016-10-05 10:00:00",256153,0.221,322.3,16.75,83.5,155.0813,0,869.6855,0,-1.529,3.101,191,17.19,17.9,26.90198,0.175,49.95,56.93,33.28,34.97
"2016-10-05 10:10:00",256154,0.395,297.1,17.22,83.1,172.9562,0,869.6645,0,-1.816,3.101,192,17.21,17.84,38.16829,0.222,50.01,56.87,33.3,34.95
"2016-10-05 10:20:00",256155,0.138,68.66,17.57,81.7,280.6972,0,869.4603,0,-1.905,3.1,191,17.28,17.8,37.44828,0.134,49.95,56.87,33.28,34.95
"2016-10-05 10:30:00",256156,0.119,343.8,17.86,81.6,308.6729,0,869.4329,0,-2.445,3.105,192,17.24,17.79,42.88628,0.139,49.95,56.87,33.28,34.95
"2016-10-05 10:40:00",256157,0.254,346.7,17.7,83.1,315.5392,0,869.4434,0,-1.721,3.101,192,17.33,17.76,43.18565,0.137,49.95,56.87,33.28,34.95
"2016-10-05 10:50:00",256158,0.494,331.8,17.02,86.9,230.8926,0,869.348,0,-2.242,3.107,188,17.36,17.76,32.50292,0.141,49.95,56.87,33.28,34.95
"2016-10-05 11:00:00",256159,0.431,339.9,16.92,88,351.4502,0,869.3736,0,-2.196,3.107,212,17.35,17.79,54.01995,0.153,49.9,56.87,33.27,34.95
"2016-10-05 11:10:00",256160,0.823,358.2,17.09,87.3,584.4415,0,868.7858,0,-2.547,3.106,203,17.29,17.79,94.58324,0.161,49.95,56.87,33.28,34.95
"2016-10-05 11:20:00",256161,0.471,332.2,17.96,82.9,409.4848,0,868.5906,0,-2.294,3.101,205,17.41,17.77,59.95818,0.146,49.9,56.87,33.27,34.95
"2016-10-05 11:30:00",256162,0.315,300.1,18.16,82.8,293.392,0,868.7053,0,-2.444,3.105,220,17.43,17.78,41.63951,0.142,49.95,56.87,33.28,34.95
"2016-10-05 11:40:00",256163,0.331,300.2,17.52,85.2,191.7194,0,868.4461,0,-1.761,3.1,211,17.37,17.8,26.4586,0.138,49.95,56.87,33.28,34.95
"2016-10-05 11:50:00",256164,0.339,315.3,17.28,86.3,279.6792,0,868.4028,0,-2.586,3.108,215,17.48,17.8,41.42351,0.147,49.9,56.87,33.27,34.95
"2016-10-05 12:00:00",256165,0.49,27.53,17.48,85,343.3774,0,868.2139,0,-1.309,3.094,205,17.54,17.79,51.12854,0.149,49.9,56.87,33.27,34.95
"2016-10-05 12:10:00",256166,0.42,9.96,17.87,84.5,316.4195,0,868.1409,0,-2.46,3.104,201,17.48,17.78,46.74782,0.147,49.95,56.87,33.28,34.95
"2016-10-05 12:20:00",256167,0.275,353.1,18.03,83.8,272.8798,0,868.0193,0,-1.635,3.096,201,17.56,17.79,39.64621,0.145,49.9,56.81,33.27,34.94
"2016-10-05 12:30:00",256168,0.275,311.3,17.84,84.5,256.6949,0,868.1613,0,-1.96,3.101,221,17.56,17.78,36.08025,0.138,49.84,56.81,33.26,34.94
"2016-10-05 12:40:00",256169,0.212,297.3,17.65,86.6,173.2628,0,868.1219,0,-2.603,3.107,187,17.56,17.74,23.49139,0.134,49.9,56.81,33.27,34.94
"2016-10-05 12:50:00",256170,0.354,343,17.42,86.5,162.199,0,867.6539,0,-2.752,3.111,195,17.66,17.71,22.06273,0.134,49.84,56.81,33.26,34.94
"2016-10-05 13:00:00",256171,0.236,201.6,17.58,86.7,215.8789,0,867.6907,0,-2.373,3.105,201,17.66,17.7,30.90374,0.14,49.9,56.87,33.27,34.95
"2016-10-05 13:10:00",256172,0.286,304.6,17.3,87.3,67.27079,0,867.6551,0,-1.371,3.099,220,17.68,17.7,7.332769,0.108,49.84,56.81,33.26,34.94
"2016-10-05 13:20:00",256173,0.253,327.1,16.83,89.5,85.24792,0,867.4614,0,-1.585,3.102,217,17.78,17.66,10.70546,0.125,49.9,56.87,33.27,34.95
"2016-10-05 13:30:00",256174,0.119,258.6,16.81,90.1,61.68978,0,867.602,0,-2.409,3.11,208,17.8,17.68,7.385822,0.118,49.84,56.81,33.26,34.94
"2016-10-05 13:40:00",256175,0.218,345.1,16.73,90.8,104.3963,0,867.4502,0,-1.402,3.1,213,17.79,17.7,14.30553,0.135,49.84,56.81,33.26,34.94
"2016-10-05 13:50:00",256176,0.521,357,17.01,90.7,138.523,0,867.4838,0,-1.83,3.103,210,17.88,17.69,19.86479,0.141,49.79,56.81,33.24,34.94
"2016-10-05 14:00:00",256177,0.258,290.7,16.92,90.9,59.98011,0,867.5433,0,-1.22,3.098,233,17.88,17.69,7.347927,0.122,49.84,56.87,33.26,34.95
"2016-10-05 14:10:00",256178,0.196,33.99,16.79,92,65.96201,0,867.7036,0,-1.172,3.098,227,17.84,17.7,8.359735,0.126,49.84,56.81,33.26,34.94
"2016-10-05 14:20:00",256179,0.145,26.12,16.84,92.8,51.19199,0,867.7731,0,-0.713,3.094,295,17.86,17.7,6.059482,0.118,49.79,56.81,33.24,34.94
"2016-10-05 14:30:00",256180,0.336,77.96,16.72,94.2,62.16928,0,867.4086,0,-3.541,3.121,190,17.89,17.71,8.219522,0.132,49.84,56.81,33.26,34.94
"2016-10-05 14:40:00",256181,0.402,120.7,16.73,94,82.96049,0,867.2507,0,-3.208,3.118,201,17.95,17.72,12.07349,0.145,49.79,56.81,33.24,34.94
"2016-10-05 14:50:00",256182,0.254,253.5,16.84,90.8,58.38048,0,867.2338,0,-3.439,3.12,192,17.97,17.72,8.64395,0.148,49.79,56.81,33.24,34.94
"2016-10-05 15:00:00",256183,0.368,65.89,16.7,92.6,23.12581,0,867.4277,0,-3.809,3.125,191,17.97,17.75,3.270377,0.141,49.79,56.81,33.24,34.94
"2016-10-05 15:10:00",256184,0.309,110.6,16.52,94.6,34.22494,0,867.0548,0,-2.059,3.108,244,17.95,17.74,4.968093,0.145,49.79,56.81,33.24,34.94
"2016-10-05 15:20:00",256185,0.571,103,16.46,93.8,61.87058,0,867.0127,0,-3.143,3.119,199,17.99,17.76,9.284384,0.149,49.79,56.81,33.24,34.94
"2016-10-05 15:30:00",256186,0.677,118.4,16.5,91.3,71.79848,0,866.6673,0,-3.487,3.12,194,18.05,17.75,11.1981,0.156,49.79,56.81,33.24,34.94
"2016-10-05 15:40:00",256187,0.529,60.58,16.89,85.5,37.01937,0,866.5494,0,-3.971,3.124,190,18.06,17.75,6.014007,0.165,49.73,56.81,33.23,34.94
"2016-10-05 15:50:00",256188,0.764,359.8,17.04,83.2,17.15177,0,866.8611,0,-2.203,3.108,226,18.06,17.75,3.198375,0.198,49.73,56.81,33.23,34.94
"2016-10-05 16:00:00",256189,0.636,350.1,16.5,88.8,13.16646,0,866.8232,0,-1.084,3.099,218,18.06,17.75,2.41394,0.189,49.79,56.81,33.24,34.94
"2016-10-05 16:10:00",256190,0.441,118.2,16.38,91.3,32.84934,0,866.4356,0,0.667,3.082,409,18.06,17.75,5.347047,0.164,49.73,56.81,33.23,34.94
"2016-10-05 16:20:00",256191,1.374,134.8,16.9,88.6,50.74,0,865.9112,0,-2.214,3.103,227,18.06,17.75,9.102485,0.178,49.73,56.75,33.23,34.93
"2016-10-05 16:30:00",256192,1.707,153.4,17.92,81.6,39.19282,0,865.2519,0,-2.881,3.109,195,18.06,17.75,8.007307,0.205,49.73,56.75,33.23,34.93
"2016-10-05 16:40:00",256193,1.264,153.3,17.87,81.6,25.02414,0,864.6221,0,-1.579,3.095,197,18.05,17.77,5.521367,0.221,49.73,56.75,33.23,34.93
"2016-10-05 16:50:00",256194,1.137,144.7,18.26,80.2,16.69979,0,864.759,0,-1.571,3.094,225,18.01,17.8,4.441346,0.304,49.73,56.75,33.23,34.93
"2016-10-05 17:00:00",256195,1.327,120.4,18.06,81.6,5.879709,0,865.1993,0,-1.23,3.093,237,18.01,17.8,2.955845,0.538,49.73,56.75,33.23,34.93
"2016-10-05 17:10:00",256196,1.613,151.7,17.78,83.4,16.18099,0,864.7296,0,-3.5,3.115,201,18.03,17.8,4.835459,0.302,49.73,56.75,33.23,34.93
"2016-10-05 17:20:00",256197,1.833,151.4,18.13,81.2,10.64715,0,864.1756,0,-0.164,3.079,226,18.03,17.8,4.566401,0.469,49.73,56.75,33.23,34.93
"2016-10-05 17:30:00",256198,1.514,158.5,18.65,77.98,9.920044,0,864.0092,0,-1.03,3.086,230,18.02,17.8,4.74072,0.496,49.73,56.75,33.23,34.93
"2016-10-05 17:40:00",256199,1.419,129.9,18.82,76.66,5.2037,0,864.024,0,-1.603,3.092,208,18.04,17.8,3.463644,0.738,49.73,56.75,33.23,34.93
"2016-10-05 17:50:00",256200,1.863,157,18.81,76.37,0.1572115,0,864.2957,0,-2.581,3.101,220,18.04,17.79,1.83035,1.918,49.73,56.75,33.23,34.93
"2016-10-05 18:00:00",256201,1.312,140.2,18.7,76.7,0.007860574,0,864.3799,0,-3.423,3.111,242,18.02,17.78,1.280866,0.273,49.73,56.75,33.23,34.93
"2016-10-05 18:10:00",256202,1.295,137.9,18.57,76.19,0,0,864.0724,0,-1.818,3.095,225,17.99,17.78,1.269497,0,49.73,56.75,33.23,34.93
"2016-10-05 18:20:00",256203,1.514,139.4,18.59,75.28,0.03537258,0,863.9039,0,-1.118,3.088,210,18,17.78,1.186127,0.996,49.73,56.75,33.23,34.93
"2016-10-05 18:30:00",256204,1.614,139.8,18.84,73.3,0.03930287,0,863.4911,0,-1.905,3.094,199,18,17.81,1.356657,1.093,49.68,56.7,33.22,34.91
"2016-10-05 18:40:00",256205,1.3,151,18.8,73.11,0,0,863.5332,0,-1.236,3.088,198,18.01,17.86,0.9170697,0,49.68,56.7,33.22,34.91
"2016-10-05 18:50:00",256206,0.703,94.5,18.68,73.95,0,0,863.4384,0,-0.944,3.087,198,18.03,17.89,0.6290644,0,49.68,56.7,33.22,34.91
"2016-10-05 19:00:00",256207,1.195,136.3,18.6,74.97,0,0,862.9119,0,-0.776,3.084,203,18.04,17.92,0.6214853,0,49.68,56.7,33.22,34.91
"2016-10-05 19:10:00",256208,1.069,115.6,18.76,74.74,0,0,862.6044,0,-1.714,3.094,208,18.05,17.9,0.7010658,0,49.73,56.7,33.23,34.91
"2016-10-05 19:20:00",256209,1.465,115.1,18.38,77.48,0,0,862.3727,0,-2.238,3.1,201,18.06,17.92,0.6101167,0,49.68,56.7,33.22,34.91
"2016-10-05 19:30:00",256210,1.624,119.7,17.76,82.1,0,0,862.1663,0,-1.15,3.095,239,18.06,17.91,0.04547453,0,49.68,56.7,33.22,34.91
"2016-10-05 19:40:00",256211,1.471,51.76,17.27,87,0,0.5,862.4043,0,-3.789,3.122,196,18.05,17.92,0.6555912,0,49.62,56.7,33.2,34.91
"2016-10-05 19:50:00",256212,1.673,126.5,16.94,91.2,0,0,862.4211,0,-3.226,3.117,214,18.05,17.93,0.4699035,0,49.62,56.7,33.2,34.91
"2016-10-05 20:00:00",256213,2.169,126,17.02,91.7,0,0.5,862.3622,0,-2.806,3.112,205,18.03,17.93,0.3751649,0,49.68,56.7,33.22,34.91
"2016-10-05 20:10:00",256214,1.702,95.4,17.07,93.5,0.007860574,1,862.2421,0,-2.268,3.107,200,18.03,17.92,0.2880054,0.064,49.62,56.64,33.2,34.9
"2016-10-05 20:20:00",256215,1.783,87.4,17.21,94.4,0.08253602,0.5,861.9725,0,-1.57,3.1,198,18.02,17.91,0.208425,0.482,49.68,56.7,33.22,34.91
"2016-10-05 20:30:00",256216,1.553,134.7,17.26,96.8,0.04323316,0,862.0041,0,-1.356,3.097,199,18,17.91,0.1402131,0.177,49.73,56.64,33.23,34.9
"2016-10-05 20:40:00",256217,1.169,78.67,17.34,98.2,0.01179086,0.5,861.9346,0,-1.919,3.102,200,17.99,17.91,0.1629504,0.048,49.73,56.64,33.23,34.9
"2016-10-05 20:50:00",256218,1.08,117.8,17.33,99.4,0,1,861.882,0,-1.975,3.103,222,17.97,17.9,0.1477922,0,49.79,56.7,33.24,34.91
"2016-10-05 21:00:00",256219,1.048,48.04,17.26,100,0,1.5,862.1578,0,-1.618,3.1,252,17.97,17.89,0.03789544,0,50.06,56.7,33.31,34.91
"2016-10-05 21:10:00",256220,1.202,67.71,17.33,100,0,2.5,862.3685,0,-1.665,3.1,199,17.97,17.89,0.007579089,0,50.83,56.7,33.5,34.91
"2016-10-05 21:20:00",256221,1.096,43.78,17.34,100,0.007860574,1.5,862.617,0,-0.991,3.093,259,17.97,17.88,0.02652681,0.032,51.77,56.75,33.73,34.93
"2016-10-05 21:30:00",256222,1.805,52.97,17.48,100,0.06288459,0,863.2447,0,-1.936,3.101,193,17.95,17.88,0.01136863,0.032,52.38,56.93,33.88,34.97
"2016-10-05 21:40:00",256223,1.474,56.12,17.57,100,0.05502402,0,863.4216,0,-1.603,3.098,212,17.89,17.88,0,0,52.38,57.33,33.88,35.06
"2016-10-05 21:50:00",256224,1.581,71.74,17.63,100,0.02358172,0.5,863.7206,0,-1.499,3.097,199,17.89,17.88,0.01894772,0.048,52.21,57.74,33.84,35.16
"2016-10-05 22:00:00",256225,1.359,52.44,17.56,100,0,0,863.9587,0,-1.864,3.101,193,17.89,17.88,0,0,52.16,58.03,33.83,35.22
"2016-10-05 22:10:00",256226,1.376,72.05,17.49,100,0.04323316,0,864.3841,0,-1.816,3.101,201,17.9,17.88,0.003789545,0.016,52.1,58.21,33.81,35.26
"2016-10-05 22:20:00",256227,1.024,52.3,17.25,100,0,0,864.5126,0,-2.291,3.107,192,17.91,17.88,0.007579089,0,52.05,58.32,33.8,35.29
"2016-10-05 22:30:00",256228,1.498,50.83,16.95,100,0.01965144,0,864.7675,0,-1.846,3.105,193,17.9,17.88,0.01894772,0.008,51.94,58.38,33.77,35.31
"2016-10-05 22:40:00",256229,1.325,56.05,16.57,99.5,0.3890984,0,865.1613,0,-1.654,3.105,194,17.88,17.88,0.01136863,0.016,51.94,58.5,33.77,35.33
"2016-10-05 22:50:00",256230,1.241,60.5,16.27,95.2,0.848942,0,865.4225,0,-0.782,3.097,200,17.88,17.89,0.09473861,0.097,51.82,58.5,33.75,35.33
"2016-10-05 23:00:00",256231,1.334,49.59,16.04,92.9,0.931478,0,865.5215,0,-2.443,3.115,195,17.89,17.91,0.3448485,0.378,51.82,58.56,33.75,35.35
"2016-10-05 23:10:00",256232,1.074,60.45,15.8,92.9,0.8450117,0,865.749,0,-2.963,3.121,195,17.9,17.92,0.4320081,0.539,51.77,58.61,33.73,35.36
"2016-10-05 23:20:00",256233,0.443,46.02,15.69,92.7,0.5502402,0,866.0397,0,-2.915,3.121,194,17.92,17.93,0.466114,0.878,51.71,58.67,33.72,35.37
"2016-10-05 23:30:00",256234,0.523,161.7,15.53,95.5,0.1532812,0,866.3746,0,-2.462,3.118,190,17.92,17.93,0.4320081,1.109,51.77,58.73,33.73,35.39
"2016-10-05 23:40:00",256235,0.152,231.8,15.43,96,0.09432688,0,866.2524,0,-2.359,3.117,194,17.91,17.93,0.4509558,0.337,51.71,58.79,33.72,35.4
"2016-10-05 23:50:00",256236,0.175,243.2,15.24,96.7,0,0,866.1576,0,-2.776,3.122,194,17.92,17.92,0.3259008,0,51.66,58.79,33.7,35.4
